[[{"header":{"parameterUnit":"m.s-1","parameterCategory":1,"la1":30.2991,"la2":30.254,"lo1":-89.0895,"lo2":-89.0444,"dy":0.0017,"dx":0.0017,"nx":28,"ny":28,"refTime":"2024-05-14T03:00:00:Z","depth":0,"parameterNumber":2,"parameterNumberName":"U-component_of_WINDS"},"data":[0,0,0,0,0,0,0,0,0,0,0,0,0,0,0,0,0,0,0,0,0,0,0,0,0,0,0,0,0,0,0,0,0,0,0,0,0,0,0,0,0,0,0,0,0,0,0,0,0,0,0,0,0,0,0,0,0,0,-6.7263,-6.7265,0,-6.7482,-6.7484,-6.7487,-6.7427,-6.7423,-6.7418,-6.7414,-6.7638,-6.7648,-6.7658,0,0,0,0,0,0,0,0,0,0,0,0,0,-6.6793,-6.6802,-6.7263,-6.7266,-6.7268,-6.7481,-6.7484,-6.7487,-6.7428,-6.7422,-6.7417,-6.7412,-6.7635,-6.7647,-6.7659,0,0,0,0,0,0,0,0,0,0,0,0,0,-6.7003,-6.6805,-6.7262,-6.7264,-6.7267,-6.7481,-6.7484,-6.7488,-6.7429,-6.7422,-6.7416,-6.741,-6.7631,-6.7645,-6.766,-6.7886,0,0,-6.7706,-6.7713,0,0,0,0,0,0,0,0,-6.6991,-6.702,-6.7261,-6.7265,-6.7268,-6.742,-6.7401,-6.7621,-6.7431,-6.7367,-6.7414,-6.7406,-6.7571,-6.759,-6.7646,-6.7896,-6.7906,-6.7708,-6.7717,-6.7723,-6.7728,0,0,0,0,0,0,0,-6.6977,-6.7011,-6.7349,-6.7265,-6.7269,-6.7254,-6.7277,-6.7442,-6.7503,-6.7372,-6.7369,-6.7395,-6.7571,-6.7632,-6.7651,-6.7909,-6.7707,-6.7721,-6.773,-6.7736,-6.8353,-6.836,0,0,0,0,0,0,-6.696,-6.6999,-6.7342,-6.7356,-6.711,-6.7268,-6.7293,-6.7378,-6.7502,-6.7514,-6.7401,-6.7392,-6.7609,-6.7633,-6.7658,-6.7927,-6.7723,-6.7737,-6.7746,-6.8345,-6.8354,-6.8362,0,0,0,0,0,0,-6.695,-6.6991,-6.7334,-6.7177,-6.7219,-6.7283,-6.7379,-6.7386,-6.7446,-6.7523,-6.7533,-6.7451,-6.7605,-6.7637,-6.7829,-6.7934,-6.7744,-6.7758,-6.8337,-6.8348,-6.8358,-6.8469,0,0,0,0,0,0,-6.6937,-6.6988,-6.7074,-6.7179,-6.7228,-6.7501,-6.7386,-6.7395,-6.7472,-6.7462,-6.7573,-6.7585,-6.7602,-6.7807,-6.7844,-6.7952,-6.777,-6.8327,-6.8342,-6.8355,-6.8456,-6.8482,-6.8504,0,0,0,0,0,-6.692,-6.7097,-6.7079,-6.712,-6.7337,-6.7507,-6.7535,-6.7551,-6.7481,-6.7567,-6.7617,-6.7581,-6.7918,-6.7827,-6.7868,-6.7982,-6.8321,-6.8338,-6.8354,-6.8445,-6.8477,-6.8504,0,0,0,0,0,0,-6.7002,-6.7111,-6.7092,-6.7308,-6.7399,-6.7496,-6.7606,-6.7585,-6.7697,-6.7683,-6.7699,-6.7725,-6.792,-6.7971,-6.7868,-6.8206,-6.8109,-6.8135,-6.8164,-6.8195,-6.8219,-6.82,-6.7782,0,0,0,0,0,-6.7046,-6.7175,-6.7263,-6.7445,-6.7492,-6.7542,-6.7616,-6.7621,-6.7716,-6.7754,-6.7817,-6.7911,-6.8037,-6.812,-6.8241,-6.8465,-6.8486,-6.8564,-6.8588,-6.8608,-6.8628,-6.8747,-6.8781,-6.8416,-6.8416,-6.8416,0,0,-6.7136,-6.7212,-6.7292,-6.7463,-6.7534,-6.7667,-6.7574,-6.7719,-6.7817,-6.7776,-6.7959,-6.801,-6.8115,-6.8323,-6.8418,-6.8372,-6.8734,-6.8629,-6.8644,-6.8653,-6.8768,-6.8802,-6.8833,-6.8428,-6.8426,-6.8424,0,0,-6.7367,-6.7439,-6.7597,-6.767,-6.7779,-6.7811,-6.785,-6.7952,-6.7983,-6.8168,-6.814,-6.8258,-6.8476,-6.8551,-6.8618,-6.888,-6.8849,-6.8919,-6.9044,-6.916,-6.9189,-6.9214,-6.9304,-6.9336,-6.894,-6.8941,-6.8941,0,-6.7465,-6.7664,-6.7681,-6.7828,-6.7903,-6.7873,-6.8032,-6.8103,-6.8246,-6.8298,-6.8245,-6.8518,-6.8587,-6.881,-6.8874,-6.8931,-6.8973,-6.8904,-6.9184,-6.9209,-6.9233,-6.9319,-6.9353,-6.8948,-6.8947,-6.8946,-6.8946,0,-6.7777,-6.7916,-6.8031,-6.8168,-6.8257,-6.841,-6.8449,-6.8538,-6.8536,-6.8574,-6.8762,-6.8845,-6.898,-6.9035,-6.9035,-6.9259,-6.9226,-6.9179,-6.9081,-6.9275,-6.9355,-6.9388,-6.8958,-6.8956,-6.8954,-6.8952,0,0,-6.8062,-6.8208,-6.825,-6.8311,-6.843,-6.8537,-6.8689,-6.8821,-6.8895,-6.8996,-6.9121,-6.9308,-6.9264,-6.9341,-6.935,-6.9452,-6.965,-6.9392,-6.9395,-6.9433,-6.9897,-6.9928,-6.9966,-6.9633,-6.964,-6.9645,-6.9887,0,-6.83,-6.8564,-6.8585,-6.8823,-6.895,-6.8925,-6.9057,-6.9144,-6.9184,-6.9297,-6.9343,-6.9472,-6.9408,-6.9453,-6.9554,-6.9604,-6.9742,-6.9588,-6.9747,-6.9753,-6.9716,-7.0008,-7.0042,-7.0266,-6.9919,-6.9924,-6.9928,0,-6.8611,-6.872,-6.8971,-6.9071,-6.9125,-6.9242,-6.9365,-6.9475,-6.9573,-6.9595,-6.9681,-6.9676,-6.9831,-6.9732,-6.9944,-6.9839,-6.9906,-6.9941,-6.9951,-6.9961,-6.9848,-7.0022,-7.0338,-7.037,-6.9979,-6.9975,-6.9971,0,-6.8787,-6.8998,-6.9174,-6.9228,-6.935,-6.9433,-6.9488,-6.958,-6.9658,-6.9767,-6.9817,-6.9943,-7.0011,-7.0108,-7.0137,-7.0063,-7.0347,-7.0252,-7.0368,-7.0367,-7.0424,-7.0419,-7.0749,-7.0477,-7.0476,-7.0476,-7.0475,0,-6.9047,-6.92,-6.9254,-6.9362,-6.9533,-6.9556,-6.9725,-6.9775,-6.9858,-6.9974,-6.9963,-7.0073,-7.0107,-7.0223,-7.0248,-7.0418,-7.045,-7.0471,-7.0474,-7.0469,-7.0465,-7.0509,-7.0492,-7.0485,-7.0483,-7.0481,-7.0479,0,-6.9269,-6.9313,-6.9503,-6.9603,-6.9632,-6.9754,-6.9839,-6.9943,-6.9983,-7.0131,-7.0167,-7.0229,-7.0365,-7.0405,-7.057,-7.0586,-7.0784,-7.0777,-7.075,-7.0749,-7.0861,-7.0848,-7.1227,-7.1276,-7.0975,-7.0978,-7.0981,0,-6.9429,-6.9547,-6.966,-6.9737,-6.9795,-6.9921,-7.0,-7.0029,-7.0112,-7.0234,-7.0322,-7.0457,-7.0565,-7.0784,-7.0844,-7.0969,-7.0961,-7.1086,-7.0979,-7.0969,-7.0957,-7.0947,-7.0958,-7.1103,-7.1107,-7.1109,-7.1111,0,-6.9707,-6.9723,-6.9838,-6.9961,-7.0057,-7.0156,-7.025,-7.0315,-7.0357,-7.0451,-7.059,-7.0674,-7.0842,-7.0975,-7.1102,-7.1158,-7.1141,-7.1145,-7.1178,-7.117,-7.1148,-7.1157,-7.0799,-7.1135,-7.1132,-7.1131,-7.1129,-7.1128,-6.99,-7.0002,-7.0097,-7.0226,-7.03,-7.0389,-7.0491,-7.0544,-7.066,-7.0797,-7.0808,-7.0958,-7.1054,-7.1223,-7.1286,-7.1403,-7.1367,-7.1415,-7.1427,-7.1437,-7.1443,-7.1134,-7.1428,-7.1427,-7.1426,-7.1426,-7.1426,0,-7.0172,-7.0233,-7.0352,-7.0484,-7.0585,-7.0563,-7.0667,-7.0752,-7.0884,-7.0975,-7.1082,-7.1241,-7.1371,-7.1441,-7.157,-7.165,-7.1645,-7.1683,-7.1674,-7.1687,-7.1471,-7.1427,-7.1684,-7.1684,-7.1684,-7.1684,-7.1684,-7.1684,-7.0326,-7.0496,-7.0523,-7.073,-7.079,-7.0936,-7.0997,-7.1078,-7.1151,-7.1328,-7.1436,-7.1481,-7.1564,-7.1699,-7.1816,-7.1834,-7.188,-7.192,-7.1933,-7.1729,-7.1702,-7.1677,-7.1636,-7.1931,-7.1932,-7.2138,-7.214,-7.2141]},{"header":{"parameterUnit":"m.s-1","parameterCategory":1,"la1":30.2991,"la2":30.254,"lo1":-89.0895,"lo2":-89.0444,"dy":0.0017,"dx":0.0017,"nx":28,"ny":28,"refTime":"2024-05-14T03:00:00:Z","depth":0,"parameterNumber":3,"parameterNumberName":"V-component_of_WINDS"},"data":[0,0,0,0,0,0,0,0,0,0,0,0,0,0,0,0,0,0,0,0,0,0,0,0,0,0,0,0,0,0,0,0,0,0,0,0,0,0,0,0,0,0,0,0,0,0,0,0,0,0,0,0,0,0,0,0,0,0,3.2705,3.2706,0,3.2826,3.2827,3.2829,3.2774,3.2771,3.2768,3.2765,3.2887,3.2893,3.2899,0,0,0,0,0,0,0,0,0,0,0,0,0,3.2426,3.2432,3.2705,3.2707,3.2708,3.2826,3.2827,3.2829,3.2774,3.2771,3.2767,3.2764,3.2885,3.2892,3.2899,0,0,0,0,0,0,0,0,0,0,0,0,0,3.2547,3.2433,3.2705,3.2695,3.2695,3.2825,3.2827,3.2829,3.2775,3.2771,3.2766,3.2762,3.2883,3.2891,3.29,3.3046,0,0,3.2928,3.2932,0,0,0,0,0,0,0,0,3.254,3.2557,3.2695,3.2696,3.2697,3.278,3.2774,3.2902,3.2776,3.2745,3.2765,3.276,3.2855,3.2866,3.2898,3.3052,3.3057,3.2929,3.2934,3.2938,3.2941,0,0,0,0,0,0,0,3.2532,3.2552,3.2753,3.2697,3.2698,3.2684,3.2697,3.2798,3.2824,3.2747,3.2744,3.2759,3.2854,3.289,3.2901,3.3059,3.2929,3.2937,3.2942,3.2946,3.3338,3.3343,0,0,0,0,0,0,3.2524,3.2545,3.2749,3.2756,3.2606,3.2693,3.2707,3.2758,3.2822,3.2828,3.2762,3.2756,3.2877,3.289,3.2905,3.308,3.2938,3.2947,3.2952,3.3333,3.3339,3.3345,0,0,0,0,0,0,3.2518,3.2543,3.2744,3.265,3.2675,3.2703,3.2761,3.2763,3.2798,3.2834,3.2838,3.2794,3.2874,3.2892,3.3012,3.3083,3.2951,3.2959,3.3328,3.3335,3.3342,3.3431,0,0,0,0,0,0,3.251,3.2541,3.2597,3.2652,3.268,3.2849,3.2765,3.2768,3.2814,3.2806,3.2864,3.287,3.2872,3.2998,3.3021,3.3093,3.2966,3.3321,3.3331,3.334,3.3422,3.3441,3.3457,0,0,0,0,0,3.2501,3.2617,3.26,3.2625,3.275,3.2854,3.287,3.287,3.282,3.2876,3.2899,3.2868,3.3072,3.3011,3.3036,3.3112,3.3317,3.3328,3.3339,3.3414,3.3437,3.3456,0,0,0,0,0,0,3.2569,3.2624,3.2606,3.2743,3.2794,3.2844,3.2915,3.2894,3.296,3.295,3.2947,3.296,3.3084,3.311,3.3041,3.3257,3.3187,3.3203,3.3235,3.3257,3.3275,3.3265,3.2974,0,0,0,0,0,3.26,3.268,3.2723,3.284,3.2867,3.2887,3.2932,3.2928,3.298,3.3001,3.3033,3.3085,3.3161,3.3211,3.3282,3.3426,3.3437,3.3491,3.3508,3.3522,3.3536,3.3614,3.3638,3.3382,3.3382,3.3381,0,0,3.2664,3.2704,3.2755,3.2855,3.2894,3.2976,3.2905,3.2995,3.3056,3.3015,3.3129,3.3155,3.3212,3.3345,3.3404,3.337,3.361,3.3537,3.3548,3.3554,3.3628,3.3652,3.3674,3.3389,3.3388,3.3387,0,0,3.2824,3.2863,3.2964,3.3006,3.3066,3.3079,3.3103,3.3157,3.3173,3.3288,3.3259,3.3331,3.3462,3.3504,3.3543,3.372,3.3694,3.3744,3.3835,3.3911,3.3931,3.3949,3.4011,3.4034,3.3758,3.3758,3.3758,0,3.2897,3.302,3.3019,3.3112,3.3157,3.3124,3.3227,3.3267,3.3347,3.3379,3.334,3.3503,3.354,3.3681,3.3725,3.3757,3.3785,3.3737,3.3928,3.3946,3.3963,3.4022,3.4046,3.3764,3.3763,3.3763,3.3762,0,3.3106,3.3192,3.3267,3.3347,3.34,3.3497,3.3511,3.3565,3.3556,3.3573,3.3691,3.3734,3.3814,3.3848,3.384,3.3989,3.3965,3.3928,3.3857,3.3993,3.4049,3.4072,3.3772,3.377,3.3768,3.3767,0,0,3.3311,3.339,3.3417,3.3453,3.3518,3.3584,3.368,3.3759,3.3805,3.3863,3.3942,3.4055,3.402,3.4064,3.4061,3.4128,3.4265,3.4082,3.4083,3.4114,3.4431,3.4459,3.4486,3.4249,3.4253,3.4257,3.4426,0,3.3475,3.3643,3.3646,3.38,3.388,3.3851,3.3934,3.3983,3.4002,3.4072,3.4092,3.4171,3.412,3.4146,3.4211,3.4235,3.4329,3.4223,3.4322,3.4326,3.4308,3.4515,3.4545,3.4703,3.4448,3.4452,3.4455,0,3.3689,3.3753,3.3916,3.397,3.4004,3.4079,3.4152,3.4219,3.4274,3.4283,3.4333,3.432,3.4417,3.4345,3.4479,3.4406,3.4447,3.4465,3.4472,3.448,3.4398,3.4529,3.4753,3.4777,3.4489,3.4487,3.4484,0,3.3821,3.3949,3.4063,3.4095,3.4161,3.4214,3.4244,3.4295,3.4342,3.4406,3.4437,3.4511,3.4551,3.4609,3.4616,3.4563,3.4751,3.4679,3.4761,3.4761,3.4801,3.4798,3.5035,3.4829,3.4829,3.4828,3.4828,0,3.4003,3.4104,3.4123,3.4193,3.4305,3.4307,3.4418,3.4443,3.4489,3.4563,3.4543,3.4613,3.4619,3.4691,3.4698,3.4808,3.4826,3.4836,3.4836,3.4837,3.4836,3.4863,3.4852,3.4835,3.4833,3.4832,3.4831,0,3.417,3.4187,3.4309,3.4362,3.4378,3.4458,3.4503,3.457,3.4587,3.4681,3.4703,3.473,3.4814,3.4828,3.4926,3.4931,3.5062,3.5052,3.5044,3.5042,3.5123,3.5115,3.5385,3.542,3.5192,3.5194,3.5196,0,3.4285,3.4361,3.4423,3.4472,3.4505,3.4583,3.4632,3.4637,3.4689,3.4758,3.4816,3.4898,3.4964,3.5099,3.5127,3.5202,3.5193,3.5283,3.5204,3.5203,3.5194,3.5189,3.5197,3.5297,3.53,3.5302,3.5303,0,3.4487,3.4492,3.4563,3.4638,3.4697,3.4756,3.4812,3.4852,3.4865,3.4924,3.501,3.5061,3.5162,3.5244,3.5319,3.5349,3.5329,3.5328,3.5351,3.5352,3.5345,3.535,3.5084,3.5321,3.532,3.5318,3.5317,3.5317,3.463,3.4697,3.4752,3.4832,3.4875,3.4927,3.4993,3.5019,3.5091,3.5174,3.5173,3.5267,3.532,3.5419,3.5455,3.5528,3.5499,3.5532,3.5541,3.5549,3.5556,3.5334,3.5542,3.5541,3.5541,3.554,3.554,0,3.4831,3.4865,3.4939,3.5018,3.5081,3.5057,3.5118,3.5172,3.5256,3.5308,3.5373,3.5472,3.5552,3.5586,3.5664,3.5717,3.5709,3.5737,3.5733,3.574,3.5578,3.555,3.5741,3.5741,3.5741,3.5741,3.5741,3.5741,3.4943,3.5055,3.5067,3.52,3.5233,3.5325,3.5362,3.5411,3.5452,3.5564,3.563,3.5652,3.5698,3.5779,3.5851,3.5859,3.5888,3.592,3.5924,3.5772,3.5751,3.5732,3.5706,3.5927,3.5927,3.608,3.6081,3.6082]}]]